GalileoSat-25

operational
NORAD ID: 43564 Int'l Des: 2018-060 Owner: GSAEU Country: I-EU Constellation: Galileo
MEOCIRCULAR

GalileoSat-25について

説明を読み込み中...

リアルタイム位置

3D地球を読み込み中...

次回通過

高度履歴

Altitude vs Time

uPlot chart will show altitude changes over time

軌道要素

1 43564U 18060A 25298.43091471 -.00000077 00000-0 00000+0 0 9996
2 43564 57.2387 348.1243 0005905 271.0382 88.9612 1.70476209 45169
Epoch: Oct 25, 2025 • Age: 14 hours

現在のステータス

高度 23221.9 km
速度 3.67 km/s
衛星直下点 -0.19°S, 52.8°W
打ち上げ日 Jul 25, 2018
運用期間 7.2 years
タイプ navigation

技術仕様

分類 Payload
質量 715.00 kg
乾燥質量 700.00 kg
総質量 715.00 kg
長さ 2.70 m
直径 1.60 m
スパン 14.70 m
形状 Box+2 pan
製造者 OHB
バスタイプ GalileoSat
フェーズステータス In Orbit
所有者/国 GSAEU/I-EU

大規模コンステレーション

Loading constellations...